{"data":{"norad_id":57925,"intl_designator":"2023-147N","name":"STARLINK-30452","alt_names":[],"object_type":"PAYLOAD","status":"ACTIVE","operator":null,"country":"US","launch_date":"2023-09-24","launch_site_code":"AFETR","launch_vehicle":null,"mission":null,"orbit_class":"UNKNOWN","rcs_meters":null,"size_class":null,"mass_kg":null,"dimensions":null,"purposes":["comms"],"wikipedia_slug":null,"has_3d_model":false,"image_url":null,"decayed_at":null,"tle_current":{"epoch":"2026-09-20T19:21:31.092768Z","epoch_age_seconds":108097,"freshness":"FRESH","line1":"1 57925U 23147N   26263.80660987  .00000525  00000+0  28602-4 0  9991","line2":"2 57925  43.0045 303.7135 0001389 273.8062  86.2631 15.27581213166438","mean_motion":15.27581213,"eccentricity":0.0001389,"inclination_deg":43.0045,"raan_deg":303.7135,"arg_perigee_deg":273.8062,"mean_anomaly_deg":86.2631,"bstar":2.8602e-5,"rev_number":16643,"period_min":94.26667385965,"perigee_km":482.09244563945,"apogee_km":483.99848212792,"semimajor_km":6861.1824638837,"source":"CELESTRAK","updated_at":"2026-09-21T09:00:33.742427Z"}}}